TimeEDT,TemperatureF,Dew PointF,Humidity,Sea Level PressureIn,VisibilityMPH,Wind Direction,Wind SpeedMPH,Gust SpeedMPH,PrecipitationIn,Events,Conditions,WindDirDegrees,DateUTC
12:15 AM,60.8,60.8,100,30.23,10.0,Calm,Calm,-,N/A,,Unknown,0,2013-09-06 04:15:00
12:35 AM,60.8,60.8,100,30.24,10.0,Calm,Calm,-,N/A,,Unknown,0,2013-09-06 04:35:00
12:55 AM,59.0,59.0,100,30.23,10.0,Calm,Calm,-,N/A,,Unknown,0,2013-09-06 04:55:00
1:15 AM,59.0,59.0,100,30.23,10.0,Calm,Calm,-,N/A,,Unknown,0,2013-09-06 05:15:00
1:35 AM,59.0,59.0,100,30.23,10.0,Calm,Calm,-,N/A,,Unknown,0,2013-09-06 05:35:00
1:55 AM,59.0,59.0,100,30.23,9.0,Calm,Calm,-,N/A,,Unknown,0,2013-09-06 05:55:00
2:15 AM,59.0,59.0,100,30.23,10.0,Calm,Calm,-,N/A,,Unknown,0,2013-09-06 06:15:00
2:35 AM,57.2,57.2,100,30.22,9.0,Calm,Calm,-,N/A,,Unknown,0,2013-09-06 06:35:00
2:55 AM,57.2,57.2,100,30.22,7.0,Calm,Calm,-,N/A,,Unknown,0,2013-09-06 06:55:00
3:15 AM,57.2,57.2,100,30.22,5.0,Calm,Calm,-,N/A,,Mist,0,2013-09-06 07:15:00
3:35 AM,57.2,57.2,100,30.22,10.0,Calm,Calm,-,N/A,,Unknown,0,2013-09-06 07:35:00
3:55 AM,57.2,57.2,100,30.22,10.0,Calm,Calm,-,N/A,,Unknown,0,2013-09-06 07:55:00
4:15 AM,55.4,55.4,100,30.22,10.0,Calm,Calm,-,N/A,,Unknown,0,2013-09-06 08:15:00
4:35 AM,55.4,55.4,100,30.22,8.0,Calm,Calm,-,N/A,,Unknown,0,2013-09-06 08:35:00
4:55 AM,55.4,55.4,100,30.22,0.5,Calm,Calm,-,N/A,Fog,Fog,0,2013-09-06 08:55:00
5:15 AM,55.4,55.4,100,30.22,0.8,Calm,Calm,-,N/A,,Mist,0,2013-09-06 09:15:00
5:35 AM,55.4,55.4,100,30.22,0.2,Calm,Calm,-,N/A,Fog,Fog,0,2013-09-06 09:35:00
5:55 AM,55.4,55.4,100,30.22,0.2,Calm,Calm,-,N/A,Fog,Fog,0,2013-09-06 09:55:00
6:15 AM,55.4,55.4,100,30.22,0.8,Calm,Calm,-,N/A,,Mist,0,2013-09-06 10:15:00
6:35 AM,53.6,53.6,100,30.23,1.2,Calm,Calm,-,N/A,,Mist,0,2013-09-06 10:35:00
6:55 AM,55.4,55.4,100,30.24,7.0,Calm,Calm,-,N/A,,Unknown,0,2013-09-06 10:55:00
7:15 AM,55.4,55.4,100,30.24,8.0,Calm,Calm,-,N/A,,Unknown,0,2013-09-06 11:15:00
7:35 AM,55.4,55.4,100,30.24,1.5,Calm,Calm,-,N/A,,Mist,0,2013-09-06 11:35:00
7:55 AM,55.4,55.4,100,30.25,6.0,Calm,Calm,-,N/A,,Clear,0,2013-09-06 11:55:00
8:15 AM,57.2,57.2,100,30.25,8.0,Calm,Calm,-,N/A,,Clear,0,2013-09-06 12:15:00
8:35 AM,59.0,59.0,100,30.25,10.0,Calm,Calm,-,N/A,,Clear,0,2013-09-06 12:35:00
8:55 AM,60.8,59.0,94,30.25,10.0,Calm,Calm,-,N/A,,Clear,0,2013-09-06 12:55:00
9:15 AM,64.4,59.0,83,30.25,10.0,Calm,Calm,-,N/A,,Clear,0,2013-09-06 13:15:00
9:35 AM,66.2,60.8,83,30.25,10.0,Calm,Calm,-,N/A,,Clear,0,2013-09-06 13:35:00
9:55 AM,68.0,62.6,83,30.25,10.0,Calm,Calm,-,N/A,,Clear,0,2013-09-06 13:55:00
10:15 AM,71.6,62.6,73,30.25,10.0,SSE,3.5,-,N/A,,Clear,150,2013-09-06 14:15:00
10:35 AM,73.4,62.6,69,30.25,10.0,Calm,Calm,-,N/A,,Clear,0,2013-09-06 14:35:00
10:55 AM,73.4,62.6,69,30.25,10.0,Calm,Calm,-,N/A,,Clear,0,2013-09-06 14:55:00
11:15 AM,75.2,62.6,65,30.25,10.0,SE,3.5,-,N/A,,Clear,140,2013-09-06 15:15:00
11:35 AM,77.0,62.6,61,30.25,10.0,East,3.5,-,N/A,,Clear,90,2013-09-06 15:35:00
11:55 AM,77.0,62.6,61,30.24,10.0,Calm,Calm,-,N/A,,Clear,0,2013-09-06 15:55:00
12:15 PM,77.0,62.6,61,30.24,10.0,SE,5.8,-,N/A,,Partly Cloudy,130,2013-09-06 16:15:00
12:35 PM,78.8,62.6,57,30.24,10.0,East,3.5,-,N/A,,Mostly Cloudy,80,2013-09-06 16:35:00
12:55 PM,78.8,62.6,57,30.23,10.0,Calm,Calm,-,N/A,,Overcast,0,2013-09-06 16:55:00
1:15 PM,77.0,62.6,61,30.22,10.0,Calm,Calm,-,N/A,,Mostly Cloudy,0,2013-09-06 17:15:00
1:35 PM,80.6,62.6,54,30.21,10.0,East,3.5,-,N/A,,Partly Cloudy,100,2013-09-06 17:35:00
1:55 PM,80.6,62.6,54,30.21,10.0,South,4.6,-,N/A,,Scattered Clouds,170,2013-09-06 17:55:00
2:15 PM,80.6,60.8,51,30.20,10.0,NNE,3.5,-,N/A,,Scattered Clouds,30,2013-09-06 18:15:00
2:35 PM,82.4,62.6,51,30.19,10.0,WNW,3.5,-,N/A,,Mostly Cloudy,300,2013-09-06 18:35:00
2:55 PM,82.4,60.8,48,30.18,10.0,Calm,Calm,-,N/A,,Partly Cloudy,0,2013-09-06 18:55:00
3:15 PM,82.4,59.0,45,30.17,10.0,Calm,Calm,-,N/A,,Clear,0,2013-09-06 19:15:00
3:35 PM,84.2,59.0,42,30.16,10.0,WNW,5.8,-,N/A,,Clear,300,2013-09-06 19:35:00
3:55 PM,82.4,59.0,45,30.16,10.0,West,4.6,-,N/A,,Clear,270,2013-09-06 19:55:00
4:15 PM,84.2,59.0,42,30.15,10.0,WSW,4.6,-,N/A,,Clear,250,2013-09-06 20:15:00
4:35 PM,84.2,59.0,42,30.15,10.0,NW,3.5,-,N/A,,Partly Cloudy,310,2013-09-06 20:35:00
4:55 PM,82.4,59.0,45,30.15,10.0,Calm,Calm,-,N/A,,Partly Cloudy,0,2013-09-06 20:55:00
5:15 PM,84.2,59.0,42,30.15,10.0,NW,4.6,-,N/A,,Clear,310,2013-09-06 21:15:00
5:35 PM,82.4,59.0,45,30.14,10.0,Calm,Calm,-,N/A,,Clear,0,2013-09-06 21:35:00
5:55 PM,82.4,59.0,45,30.14,10.0,WSW,4.6,-,N/A,,Clear,250,2013-09-06 21:55:00
6:15 PM,82.4,60.8,48,30.14,10.0,Calm,Calm,-,N/A,,Scattered Clouds,0,2013-09-06 22:15:00
6:35 PM,82.4,60.8,48,30.14,10.0,Calm,Calm,-,N/A,,Partly Cloudy,0,2013-09-06 22:35:00
6:55 PM,80.6,62.6,54,30.14,10.0,WNW,3.5,-,N/A,,Clear,290,2013-09-06 22:55:00
7:15 PM,77.0,64.4,65,30.13,10.0,Calm,Calm,-,N/A,,Clear,0,2013-09-06 23:15:00
7:35 PM,75.2,66.2,73,30.14,10.0,WNW,3.5,-,N/A,,Clear,300,2013-09-06 23:35:00
7:55 PM,73.4,66.2,78,30.14,10.0,Calm,Calm,-,N/A,,Unknown,0,2013-09-06 23:55:00
8:15 PM,71.6,64.4,78,30.14,10.0,Calm,Calm,-,N/A,,Unknown,0,2013-09-07 00:15:00
8:35 PM,71.6,64.4,78,30.15,10.0,Calm,Calm,-,N/A,,Unknown,0,2013-09-07 00:35:00
8:55 PM,68.0,64.4,88,30.15,10.0,Calm,Calm,-,N/A,,Unknown,0,2013-09-07 00:55:00
9:15 PM,68.0,64.4,88,30.16,10.0,Calm,Calm,-,N/A,,Unknown,0,2013-09-07 01:15:00
9:35 PM,66.2,64.4,94,30.16,10.0,Calm,Calm,-,N/A,,Unknown,0,2013-09-07 01:35:00
9:55 PM,64.4,64.4,100,30.16,10.0,Calm,Calm,-,N/A,,Unknown,0,2013-09-07 01:55:00
10:15 PM,64.4,64.4,100,30.17,10.0,Calm,Calm,-,N/A,,Unknown,0,2013-09-07 02:15:00
10:35 PM,64.4,62.6,94,30.17,10.0,Calm,Calm,-,N/A,,Unknown,0,2013-09-07 02:35:00
10:55 PM,64.4,62.6,94,30.17,10.0,Calm,Calm,-,N/A,,Unknown,0,2013-09-07 02:55:00
11:15 PM,62.6,62.6,100,30.17,10.0,Calm,Calm,-,N/A,,Unknown,0,2013-09-07 03:15:00
11:35 PM,62.6,62.6,100,30.17,10.0,Calm,Calm,-,N/A,,Unknown,0,2013-09-07 03:35:00
11:55 PM,62.6,62.6,100,30.17,10.0,Calm,Calm,-,N/A,,Unknown,0,2013-09-07 03:55:00